Location: Casteau
(50.5142°N, 4.0161°E)
Time: 18:25:52
(UTC+00:00)

S-56A Canister/Altair - Pass Details

Date: 01 August 2021
Orbit: 632 x 2500 km, 38.9° (Epoch: 20 September)

Event Time Altitude Azimuth Distance (km) Brightness Sun altitude
Rises 15:04:32 0° 235° (SW) 5,566 12.8 39.6°
Reaches altitude 10° 15:08:05 10° 229° (SW) 4,754 12.6 39.1°
Maximum altitude 15:21:05 47° 162° (SSE) 3,067 11.0 37.1°
Drops below altitude 10° 15:34:48 10° 96° (E) 5,011 11.3 35.0°
Sets 15:38:39 0° 91° (E) 5,881 11.5 34.4°
